OEWSP LOWS-LJPZ

Flight info

Callsign OEWSP
Flight time N/A
Altitude 25000
Route VERDA DCT VEKEN DCT RIFEN DCT KEBBU DCT BARPI BARPI2P
Aircraft PC12/L-SDFGRWY/S

Departure

Time 2026-04-28 14:58
Airport Salzburg Airport (LOWS)

Arrival

Time N/A
Airport Portorož Airport (LJPZ)
Time Latitude Longitude Altitude Speed Heading
2026-04-28 14:51 47.79521 12.99816 1416 ft 0 kts 336°
2026-04-28 14:52 47.79536 12.99819 1416 ft 5 kts 36°
2026-04-28 14:52 47.79544 12.99885 1416 ft 8 kts 72°
2026-04-28 14:53 47.79561 12.99970 1416 ft 9 kts 111°
2026-04-28 14:53 47.79496 13.00025 1416 ft 13 kts 156°
2026-04-28 14:53 47.79400 13.00086 1416 ft 17 kts 157°
2026-04-28 14:53 47.79284 13.00158 1416 ft 19 kts 156°
2026-04-28 14:54 47.79188 13.00218 1416 ft 13 kts 158°
2026-04-28 14:54 47.79126 13.00290 1416 ft 9 kts 99°
2026-04-28 14:54 47.79122 13.00330 1416 ft 0 kts 96°
2026-04-28 14:56 47.79122 13.00331 1416 ft 1 kts 96°
2026-04-28 14:56 47.79119 13.00365 1416 ft 8 kts 97°
2026-04-28 14:56 47.79120 13.00485 1415 ft 2 kts 57°
2026-04-28 14:57 47.79144 13.00502 1416 ft 10 kts
2026-04-28 14:57 47.79197 13.00479 1416 ft 14 kts 338°
2026-04-28 14:57 47.79522 13.00296 1419 ft 62 kts 345°
2026-04-28 14:57 47.80017 12.99970 1420 ft 92 kts 338°
2026-04-28 14:58 47.80617 12.99531 1605 ft 100 kts 344°
2026-04-28 14:58 47.81327 12.99113 1788 ft 125 kts 347°
2026-04-28 14:58 47.82171 12.98743 2323 ft 116 kts 359°
2026-04-28 14:58 47.82930 12.98751 2839 ft 115 kts 18°
2026-04-28 14:59 47.83656 12.99308 3256 ft 112 kts 48°
2026-04-28 14:59 47.84047 13.00297 3619 ft 118 kts 55°
2026-04-28 14:59 47.84725 13.00987 4138 ft 116 kts 22°
2026-04-28 14:59 47.85437 13.01290 4609 ft 118 kts 23°
2026-04-28 15:00 47.85742 13.01458 4742 ft 123 kts 24°